Content
SEND FEEDBACK

Daily
Averages
Monthly
Summary
United States of America

NORTH LOUP, NEBRASKA


Home > North America > United States > Nebraska
Elevation: 1955 feet     Latitude: 41 30N     Longitude: 098 46W

WEATHER
 
SELECT A DAY
Number of Records: 170,394;   Date Range: 1/1/95 - 8/30/14
 
SHARE

PRINT THIS DATA

[ ← Previous Day ]
WEATHER ALMANAC - FEBRUARY 13, 2013
[ Next Day → ]
[ °C ]   °F
Weather ElementAverageHighLow
Temperature35.9 °F48 °F (2:53 pm)25 °F (2:53 am)
Dewpoint25.7 °F30.9 °F (10:53 pm)19 °F (7:53 am)
Humidity67.7 %85 % (11:53 pm)46 % (2:53 pm)
Barometer29.87 in29.96 in (1:53 am)29.78 in (2:53 pm)
Wind Speed9 mph23 mph (10:53 pm)
Wind Gust31.1 mph (10:53 pm)
Weather ElementAverage
Visibility10 mi
Wind DirectionW (269.1 °)

Weather ElementTotal
Precipitation---
Heating Degree Days28.5 (Base 65)
Averaged from 23 records on February 13, 2013
WEATHER CONDITIONS BREAKOUT
WIND DIRECTION BREAKOUT
WEATHER BY HOUR - FEBRUARY 13, 2013
[ °C ]   °F
Local TimeTemperatureDewpointHumidityBarometerVisibilityWind DirectionWind SpeedGust SpeedPrecipitationEventsConditions
1:53 AM26.1 °F21.0 °F81 %29.96 in10.0 miNW (310°)6.9 mphClear
2:53 AM25.0 °F19.9 °F81 %29.95 in10.0 miCalmClear
3:53 AM26.1 °F21.0 °F81 %29.92 in10.0 miNW (320°)4.6 mphClear
4:53 AM28.0 °F21.9 °F78 %29.91 in10.0 miWNW (300°)8.1 mphClear
5:53 AM28.0 °F21.9 °F78 %29.91 in10.0 miWNW (300°)4.6 mphClear
6:53 AM28.9 °F19.9 °F69 %29.91 in10.0 miWNW (300°)4.6 mphClear
7:53 AM26.1 °F19.0 °F75 %29.91 in10.0 miWNW (290°)3.5 mphClear
8:53 AM30.0 °F21.0 °F69 %29.91 in10.0 miWest (270°)4.6 mphClear
9:53 AM34.0 °F23.0 °F64 %29.90 in10.0 miWest (270°)5.8 mphClear
10:53 AM37.0 °F25.0 °F62 %29.87 in10.0 miWSW (250°)5.8 mphClear
11:53 AM39.9 °F27.0 °F60 %29.88 in10.0 miWSW (240°)9.2 mphClear
12:53 PM42.1 °F28.0 °F58 %29.84 in10.0 miWest (260°)11.5 mphClear
1:53 PM44.1 °F28.0 °F53 %29.82 in10.0 miWest (280°)15.0 mphClear
2:53 PM48.0 °F28.0 °F46 %29.78 in10.0 miWest (280°)15.0 mphScattered Clouds
3:53 PM46.9 °F28.9 °F50 %29.79 in10.0 miWNW (290°)13.8 mphPartly Cloudy
4:53 PM46.9 °F30.0 °F52 %29.79 in10.0 miWSW (250°)9.2 mphClear
5:53 PM42.1 °F30.0 °F62 %29.81 in10.0 miWest (260°)9.2 mphClear
6:53 PM39.0 °F28.9 °F67 %29.82 in10.0 miWSW (250°)11.5 mphClear
7:53 PM37.9 °F28.9 °F70 %29.83 in10.0 miWSW (250°)11.5 mphClear
8:53 PM37.0 °F28.9 °F73 %29.85 in10.0 miWNW (290°)8.1 mphClear
9:53 PM39.0 °F30.0 °F70 %29.87 in10.0 miWNW (300°)11.5 mphMostly Cloudy
10:53 PM39.0 °F30.9 °F73 %29.90 in10.0 miNNW (330°)23.0 mph31.1 mphPartly Cloudy
11:53 PM35.1 °F30.9 °F85 %29.91 in10.0 miWNW (300°)9.2 mph0.00 inPartly Cloudy
Hourly data recorded from KODX, located miles away from North Loup, Nebraska







STORIES FROM OUR PARTNERS